Regional Weather Roundup
Issued by NWS Newport/Morehead, NC

Current Version | Previous Version | Graphics & Text | Print | Product List | Glossary Off
Versions: 1 2 3 4 5 6 7 8 9 10 11 12 13 14 15 16 17 18 19 20 21 22 23 24 25 26 27 28 29 30 31 32 33 34 35 36 37 38 39 40 41 42 43 44 45 46 47 48 49 50

000
ASUS42 KMHX 252313
RWRMHX
WEATHER ROUNDUP FOR EASTERN NORTH CAROLINA
NATIONAL WEATHER SERVICE NEWPORT/MOREHEAD CITY NC
700 PM EDT SUN JUN 25 2017

NOTE: "FAIR" INDICATES FEW OR NO CLOUDS BELOW 12,000 FEET
WITH NO SIGNIFICANT WEATHER AND/OR OBSTRUCTIONS TO VISIBILITY

NCZ015>017-031-032-045>047-102-103-260000-
NORTH COAST

CITY           SKY/WX    TMP DP  RH WIND       PRES   REMARKS
EDENTON        SUNNY     85  67  54 CALM      30.01R
ELIZABETH CITY PTSUNNY   83  72  69 NE7       30.00R
KITTY HAWK     CLOUDY    81  73  77 SE3       29.98S
MANTEO         SUNNY     82  73  76 SW3       30.00S

$$

NCZ045>047-081-094-103-104-260000-
CENTRAL COAST

CITY           SKY/WX    TMP DP  RH WIND       PRES   REMARKS
FRISCO         CLOUDY    80  75  84 SW7       30.01R

$$

NCZ095-097-098-100-101-260000-
SOUTHERN COAST

CITY           SKY/WX    TMP DP  RH WIND       PRES   REMARKS
BEAUFORT       CLOUDY    77  72  84 SW7       30.02S
CEDAR ISLAND   NOT AVBL
JACKSONVILLE   CLOUDY    83  74  74 N6        30.01R
PINEY ISLAND   CLOUDY   N/A N/A N/A SW8       30.01R
WILMINGTON     LGT RAIN  78  75  90 SW8       30.03R


$$

NCZ011>013-027>030-043-044-078>080-089-090>093-098-260000-
COASTAL PLAIN

CITY           SKY/WX    TMP DP  RH WIND       PRES   REMARKS
AHOSKIE          N/A     79  71  76 CALM      30.01S
CLINTON        CLOUDY    83  71  65 CALM      30.03S
ELIZABETHTOWN  NOT AVBL
GOLDSBORO      NOT AVBL
GREENVILLE     CLOUDY    82  66  57 NW5       30.04R
HAVELOCK       PTSUNNY   78  71  79 S8        30.03R
KENANSVILLE    PTSUNNY   82  70  65 CALM      30.03S
KINSTON        NOT AVBL
NEW BERN       MOSUNNY   83  71  67 NW3       30.03R
RICHLANDS      CLOUDY    83  75  77 CALM      30.02S
ROCKY MOUNT    MOSUNNY   81  65  58 W6        30.03S
WASHINGTON     CLOUDY   N/A N/A N/A CALM      30.02R
WHITEVILLE     CLOUDY    78  69  73 SE3       30.04R

$$

AMZ130-135-150-152-154-156-158-170-250-252-270-ANZ085-086-088-633-658-670-260000-
MARINE OBSERVATIONS

STATION/POSITION TIME  TEMP    WIND        PRES    WAVE   SWELL
                       AIR SEA DIR/SP/G            HT/PER HT/PER
                 (UTC) (F)     (DEG/KT/KT) (MB)    (FT/S) (FT/S)
CHESAPEAKE LIGHT NOT AVBL
64 E VA BEACH    2250   75 76  220/  6/  6 1016.2    3/ 6   3/ 6
DUCK             2242   76 63  100/  8/  9 1015.2
2 E DUCK         NOT AVBL
OREGON INLET     2242   82 83  180/  7/  9 1015.6
13E OREGON INLT  2248      79                N/A     2/ 8   2/ 8
HATTERAS CG      2242   80 79  230/  7/ 10 1016.1
DIAMOND BUOY     2250   79 80  240/ 10/ 12 1016.2    3/ 6   2/ 6
CAPE LOOKOUT     2300   78     280/  8/ 10 1016.0
BEAUFORT LAB     2242   77 80  230/  3/  7 1015.8
30 SE NEW RVR IN 2208   80 81  230/ 10/ 14 1016.3
30 SE NEW RVR IN 2243      81                N/A     4/ 6
27 SE WRIGHTSVLE 2208   79 81  230/ 16/ 19 1016.1
5 SE WRIGHTSVLE  2208   81 80  230/ 14/ 16 1016.3
225 S CAPE HAT   2250   81 81  210/ 12/ 14 1019.4    4/ 6   2/ 6
41 SE CHARLESTON 2300   80     280/  6/  8 1017.5

$$



USA.gov is the U.S. government's official web portal to all federal, state and local government web resources and services.